Weather in Vilani

Latvia     56°32′59″N   26°55′33″E
temp.,
°C
wind,
m/s
gust,
m/s
humid.,
%
clouds,
%
prec.,
mm/h
press.,
hPa
HPBL,
m
11 april, sun
sun1100:00+3w2283100 0.0 102020
03:00+2ese118371 0.0 102210
06:00+1se229296 0.0 102312
09:00+5se2383100 0.0 1024221
12:00+6se357994 0.0 1025456
15:00+8se4884100 0.0 1025406
18:00+11se487975 0.0 1024633
21:00+8se4109199 0.0 1024154
12 april, mon
mon1200:00+9sse51480100 0.0 1024328
03:00+8sse51379100 0.0 1024270
06:00+7sse61477100 0.0 1024282
09:00+9sse61465100 0.0 1024541
12:00+13s81146100 0.0 10231115
15:00+14s71142100 0.0 10211526
18:00+14s5947100 0.0 10191397
21:00+9sse3763100 0.0 1019112
13 april, tue
tue1300:00+8s3672100 0.0 1019106
03:00+8ssw347493 0.0 101895
06:00+8s2577100 0.0 1018135
09:00+8s3678100 0.0 1018257
12:00+8ssw2590100 0.4 1018308
15:00+7nnw4694100 1.4 1019382
18:00+5nnw5888100 0.4 1020465
21:00+4nnw4879100 0.6 1022687
14 april, wed
wed1400:00+2nnw4886100 0.4 1023594
03:00+2n3891100 0.6 1023519
06:00+2n4991100 0.1 1022514
09:00+2nne6973100 0.1 1024568
12:00+4nne6860100 0.0 1024821
15:00+5ne6859100 0.0 1024934
18:00+5ne5858100 0.0 1024951
21:00+4nne61161100 0.0 1024563
15 april, thu
thu1500:00+3nne61263100 0.0 1025470
03:00+2nne61164100 0.0 1025459
06:00+2nne61269100 0.0 1026456
09:00+3ne7116678 0.0 1027574
12:00+7ne794829 0.0 1027955
15:00+10nne68360 0.0 10261307
18:00+9ne69450 0.0 10261349
21:00+5nne512630 0.0 1027412